Walla Walla, WA
on Wednesday, December 5, 2012

Wednesday
Previous Day Next Day
Daily Summary
 ActualAverage (KPDT)Record (KPDT)
Temperature
Mean Temperature °F 35°F  
Max Temperature 57°F 41°F 66°F (1944)
Min Temperature 39°F 28°F 1°F (1972)
Degree Days
Heating Degree Days 17 30  
Month to date heating degree days 148  
Since 1 July heating degree days 1401  
Cooling Degree Days 0 0  
Month to date cooling degree days 0  
Year to date cooling degree days 636  
Moisture
Dew Point 36°F   
Average Humidity 70    
Maximum Humidity 87    
Minimum Humidity 52    
Precipitation
Precipitation 0.17 in 0.05 in 0.75 in (1971)
Month to date precipitation 0.26  
Year to date precipitation 11.45  
Snow
Snow 0.00 in 0.10 in 4.00 in (1986)
Month to date snowfall 0.7  
Year to date snowfall 9.9  
Since 1 July snowfall 2.2  
Snow Depth in   
Wind
Wind Speed 15 mph   
Max Wind Speed 22 mph   
Max Gust Speed 33 mph   
Visibility 10 miles   
Events Rain   

Key: T is trace of precipitation, MM is missing value
Source: NWS Daily Summary
Time(PST)TemperatureDew PointHumidity Pressure Visibility Wind DirectionWind SpeedGust SpeedPrecipitationEvents Conditions
12:53 AM 57.9°F 44.1°F 60% 29.78 in 10.0 miles WSW 21.9 mph 33.4 mph 0.00 in   Overcast
1:53 AM 52.0°F 44.1°F 74% 29.85 in 10.0 miles SW 18.4 mph 29.9 mph N/A   Overcast
2:53 AM 48.9°F 44.1°F 83% 29.91 in 3.0 miles SSW 20.7 mph 28.8 mph 0.07 in Rain Heavy Rain
3:50 AM 48.2°F 44.6°F 87% 29.94 in 10.0 miles South 13.8 mph 24.2 mph 0.09 in   Overcast
3:53 AM 48.0°F 44.1°F 86% 29.95 in 10.0 miles South 13.8 mph 24.2 mph 0.09 in   Overcast
4:53 AM 46.0°F 42.1°F 86% 29.99 in 10.0 miles SSW 12.7 mph - 0.01 in   Overcast
6:53 AM 45.0°F 36.0°F 71% 30.08 in 10.0 miles SSW 15.0 mph 23.0 mph N/A   Overcast
7:53 AM 43.0°F 35.1°F 74% 30.11 in 10.0 miles SSW 15.0 mph - N/A   Partly Cloudy
8:53 AM 43.0°F 35.1°F 74% 30.13 in 10.0 miles SSW 13.8 mph - N/A   Clear
9:53 AM 46.0°F 34.0°F 63% 30.15 in 10.0 miles SSW 13.8 mph - N/A   Clear
10:53 AM 46.9°F 33.1°F 59% 30.17 in 10.0 miles SW 17.3 mph 24.2 mph N/A   Clear
11:53 AM 48.0°F 30.9°F 52% 30.16 in 10.0 miles SW 13.8 mph 25.3 mph N/A   Partly Cloudy
12:53 PM 48.0°F 32.0°F 54% 30.17 in 10.0 miles SW 18.4 mph 24.2 mph N/A   Partly Cloudy
1:53 PM 48.0°F 33.1°F 56% 30.18 in 10.0 miles SW 10.4 mph - N/A   Clear
2:53 PM 46.9°F 32.0°F 56% 30.19 in 10.0 miles SW 11.5 mph - N/A   Clear
3:53 PM 44.1°F 32.0°F 63% 30.21 in 10.0 miles SW 8.1 mph - N/A   Partly Cloudy
4:53 PM 42.1°F 34.0°F 73% 30.22 in 10.0 miles SSE 6.9 mph - N/A   Clear
5:53 PM 41.0°F 32.0°F 70% 30.22 in 10.0 miles SSE 5.8 mph - N/A   Clear
6:53 PM 41.0°F 32.0°F 70% 30.23 in 10.0 miles SSE 6.9 mph - N/A   Mostly Cloudy
7:53 PM 39.9°F 32.0°F 73% 30.23 in 10.0 miles South 4.6 mph - N/A   Overcast
9:53 PM 39.0°F 30.9°F 73% 30.22 in 10.0 miles South 4.6 mph - N/A   Mostly Cloudy
10:53 PM 39.0°F 30.9°F 73% 30.22 in 10.0 miles SSW 5.8 mph - N/A   Partly Cloudy
11:53 PM 39.9°F 30.9°F 70% 30.22 in 10.0 miles South 5.8 mph - N/A   Partly Cloudy
Moon Phase
Dec. 05 Dec. 06 Dec. 13 Dec. 20 Dec. 28
Sunrise:07:20 AM (PST) Moon Rise:11:19 PM (PST)12/5
Sunset:04:07 PM (PST) Moon Set:11:30 AM (PST)12/5

Copyright © 2014 The Weather Underground, Inc.